Weather Roundup
Issued by NWS Springfield, MO

Home | Current Version | Previous Version | Text Only | Print | Product List | Glossary On
Versions: 1 2 3 4 5 6 7 8 9 10 11 12 13 14 15 16 17 18 19 20 21 22 23 24 25 26 27 28 29 30 31 32 33 34 35 36 37 38 39 40 41 42 43 44 45 46 47 48 49 50
000
NZUS99 KSGF 280959
HRRSGF

HOURLY WEATHER
NATIONAL WEATHER SERVICE SPRINGFIELD MO
400 AM CST SUN DEC 28 2014

......SGF CWA......

CITY           SKY/WX    TMP DP  RH WIND       PRES   REMARKS
SPRINGFIELD    CLOUDY    26  23  88 NW5       30.22F WCI  20
JOPLIN         MOCLDY    22  20  92 CALM      30.25F
WEST PLAINS    CLOUDY    30  24  78 N8        30.18F WCI  22
ROLLA          CLOUDY    27  23  85 N8        30.19F WCI  19
OSAGE BEACH    CLOUDY    27  19  74 NW5       30.23F WCI  21

......SURROUNDING SGF CWA......

CITY           SKY/WX    TMP DP  RH WIND       PRES   REMARKS
CHANUTE        PTCLDY    21  18  88 CALM      30.25F
PARSONS        PTCLDY    20  17  88 N3        30.26F
COFFEYVILLE    PTCLDY    22  18  85 N5        30.26F WCI  16
EMPORIA        CLEAR     15  12  88 SW5       30.23F WCI   8
SILOAM SPRINGS CLOUDY    27  19  74 CALM      30.23F
HARRISON AR    CLOUDY    28  26  92 NW7       30.20F WCI  21
NEAR YELLVILLE CLOUDY    30  25  80 NW7       30.21F WCI  23

......KANSAS AND MISSOURI......

CITY           SKY/WX    TMP DP  RH WIND       PRES   REMARKS
KANSAS CTY INT CLEAR     19  17  92 W6        30.22F WCI  11
DOWNTOWN KC    CLEAR     22  16  78 SW3       30.25F
COLUMBIA       CLOUDY    27  22  81 NW7       30.22F WCI  19
SEDALIA        CLEAR     23  20  88 W3        30.24F
ST JOSEPH      CLEAR     14  13  95 CALM      30.24F
ST LOUIS       CLOUDY    33  25  72 W7        30.22S WCI  27
SPIRIT OF STL  CLOUDY    31  25  78 NW9       30.22S WCI  23
KIRKSVILLE     CLEAR     20  19  96 S3        30.21F
WICHITA        CLEAR     19  14  81 W3        30.23F
TOPEKA         CLEAR     15  11  83 CALM      30.24F
OLATHE         FAIR      20  18  92 W5        30.22F WCI  13

......TENNESSEE......

CITY           SKY/WX    TMP DP  RH WIND       PRES   REMARKS
MEMPHIS        DRIZZLE   41  38  89 N10       30.14F
NASHVILLE      LGT RAIN  50  49  96 N3        30.06S VSB 1

......ARKANSAS.......

CITY           SKY/WX    TMP DP  RH WIND       PRES   REMARKS
FAYETTEVILLE   CLOUDY    28  26  92 N5        30.22F WCI  23
FT SMITH       CLOUDY    32  27  81 W6        30.24F WCI  26
LITTLE ROCK    CLOUDY    39  32  76 NW9       30.21R WCI  33

......OKLAHOMA.......

CITY           SKY/WX    TMP DP  RH WIND       PRES   REMARKS
TULSA          CLOUDY    25  19  78 NW3       30.26F
PONCA CITY     MOCLDY    19  14  81 CALM      30.26F
MCALESTER      CLOUDY    31  25  78 N7        30.24F WCI  24
OKLAHOMA CITY  CLOUDY    25  18  74 NW3       30.25F

......IOWA............

CITY           SKY/WX    TMP DP  RH WIND       PRES   REMARKS
DES MOINES     CLEAR     17  13  84 S7        30.19F WCI   8
QUAD CITIES    CLEAR     20  16  84 W8        30.20S WCI  10

......ILLINOIS........

CITY           SKY/WX    TMP DP  RH WIND       PRES   REMARKS
QUINCY         CLOUDY    27  21  78 NW7       30.22R WCI  19
CHICAGO        CLEAR     25  19  78 W10       30.12R WCI  15



USA.gov is the U.S. government's official web portal to all federal, state and local government web resources and services.